Time,TemperatureF,DewpointF,PressureIn,WindDirection,WindDirectionDegrees,WindSpeedMPH,WindSpeedGustMPH,Humidity,HourlyPrecipIn,Conditions,Clouds,dailyrainin,SoftwareType,DateUTC
2013-02-07 00:00:00,71.1,70.5,30.40,ESE,112,3.7,3.7,98,0.00,CLR,,0.00,WeatherDisplay:10.37,2013-02-07 05:00:00,
2013-02-07 00:01:00,71.1,70.5,30.40,ESE,112,3.5,3.5,98,0.00,CLR,,0.00,WeatherDisplay:10.37,2013-02-07 05:01:00,
2013-02-07 00:06:00,71.1,70.5,30.34,ESE,112,4.2,4.2,98,0.00,CLR,,0.00,WeatherDisplay:10.37,2013-02-07 05:06:00,
2013-02-07 00:11:00,71.1,70.5,30.34,ESE,112,3.5,3.5,98,0.00,CLR,,0.00,WeatherDisplay:10.37,2013-02-07 05:11:00,
2013-02-07 00:16:00,71.2,70.6,30.34,ESE,112,4.6,4.6,98,0.00,CLR,,0.00,WeatherDisplay:10.37,2013-02-07 05:16:00,
2013-02-07 00:21:00,71.2,70.6,30.32,ESE,112,5.8,5.8,98,0.00,CLR,,0.00,WeatherDisplay:10.37,2013-02-07 05:21:00,
2013-02-07 00:26:00,71.2,70.6,30.32,SE,135,3.2,3.2,98,0.00,CLR,,0.00,WeatherDisplay:10.37,2013-02-07 05:26:00,
2013-02-07 00:31:00,71.2,70.6,30.27,East,90,4.2,4.2,98,0.00,CLR,,0.00,WeatherDisplay:10.37,2013-02-07 05:31:00,
2013-02-07 00:36:00,71.2,70.6,30.27,ESE,112,1.1,0.0,98,0.00,CLR,,0.00,WeatherDisplay:10.37,2013-02-07 05:36:00,
2013-02-07 00:41:00,71.2,70.6,30.27,ESE,112,2.3,0.0,98,0.00,CLR,,0.00,WeatherDisplay:10.37,2013-02-07 05:41:00,
2013-02-07 00:46:00,71.1,70.5,30.24,ESE,112,2.3,2.3,98,0.00,CLR,,0.00,WeatherDisplay:10.37,2013-02-07 05:46:00,
2013-02-07 00:51:00,71.1,70.5,30.24,ESE,112,3.2,3.2,98,0.00,CLR,,0.00,WeatherDisplay:10.37,2013-02-07 05:51:00,
2013-02-07 00:56:00,71.1,70.5,30.24,ESE,112,0.0,0.0,98,0.00,CLR,,0.00,WeatherDisplay:10.37,2013-02-07 05:56:00,
2013-02-07 01:01:00,71.1,70.5,30.24,ESE,112,0.0,0.0,98,0.00,CLR,,0.00,WeatherDisplay:10.37,2013-02-07 06:01:00,
2013-02-07 01:06:00,71.1,70.5,30.24,ESE,112,0.0,0.0,98,0.00,CLR,,0.00,WeatherDisplay:10.37,2013-02-07 06:06:00,
2013-02-07 01:11:00,70.9,70.3,30.24,ESE,112,0.0,0.0,98,0.00,CLR,,0.00,WeatherDisplay:10.37,2013-02-07 06:11:00,
2013-02-07 01:16:00,70.7,70.1,30.24,ESE,112,0.0,0.0,98,0.00,CLR,,0.00,WeatherDisplay:10.37,2013-02-07 06:16:00,
2013-02-07 01:21:00,70.7,70.1,30.23,ESE,112,0.0,0.0,98,0.00,CLR,,0.00,WeatherDisplay:10.37,2013-02-07 06:21:00,
2013-02-07 01:26:00,70.7,70.1,30.23,ESE,112,1.1,1.1,98,0.00,CLR,,0.00,WeatherDisplay:10.37,2013-02-07 06:26:00,
2013-02-07 01:32:00,70.5,69.9,30.33,ESE,112,3.2,3.2,98,0.00,CLR,,0.00,WeatherDisplay:10.37,2013-02-07 06:32:00,
2013-02-07 01:37:00,70.5,69.9,30.33,ESE,112,0.0,0.0,98,0.00,CLR,,0.00,WeatherDisplay:10.37,2013-02-07 06:37:00,
2013-02-07 01:42:00,70.5,69.9,30.33,ESE,112,0.0,0.0,98,0.00,CLR,,0.00,WeatherDisplay:10.37,2013-02-07 06:42:00,
2013-02-07 01:47:00,70.5,69.9,30.67,ESE,112,2.3,2.3,98,0.00,CLR,,0.00,WeatherDisplay:10.37,2013-02-07 06:47:00,
2013-02-07 01:52:00,70.5,69.9,30.67,SE,135,1.1,1.1,98,0.00,CLR,,0.00,WeatherDisplay:10.37,2013-02-07 06:52:00,
2013-02-07 01:57:00,70.5,69.9,30.85,SE,135,0.0,0.0,98,0.00,CLR,,0.00,WeatherDisplay:10.37,2013-02-07 06:57:00,
2013-02-07 02:02:00,70.5,69.9,30.85,SE,135,0.0,0.0,98,0.00,CLR,,0.00,WeatherDisplay:10.37,2013-02-07 07:02:00,
2013-02-07 02:07:00,70.5,69.9,30.95,ESE,112,0.0,0.0,98,0.00,CLR,,0.00,WeatherDisplay:10.37,2013-02-07 07:07:00,
2013-02-07 02:12:00,70.5,69.9,30.95,ESE,112,0.0,0.0,98,0.00,CLR,,0.00,WeatherDisplay:10.37,2013-02-07 07:12:00,
2013-02-07 02:17:00,70.5,69.9,30.95,East,90,2.3,2.3,98,0.00,CLR,,0.00,WeatherDisplay:10.37,2013-02-07 07:17:00,
2013-02-07 02:22:00,70.5,69.9,31.03,ESE,112,0.0,0.0,98,0.00,CLR,,0.00,WeatherDisplay:10.37,2013-02-07 07:22:00,
2013-02-07 02:27:00,70.5,69.9,31.03,ESE,112,3.5,3.5,98,0.00,CLR,,0.00,WeatherDisplay:10.37,2013-02-07 07:27:00,
2013-02-07 02:32:00,70.5,69.9,31.02,ESE,112,0.0,0.0,98,0.00,CLR,,0.00,WeatherDisplay:10.37,2013-02-07 07:32:00,
2013-02-07 02:37:00,70.5,69.9,31.02,ESE,112,0.0,0.0,98,0.00,CLR,,0.00,WeatherDisplay:10.37,2013-02-07 07:37:00,
2013-02-07 02:42:00,70.5,69.9,30.78,ESE,112,0.0,0.0,98,0.00,CLR,,0.00,WeatherDisplay:10.37,2013-02-07 07:42:00,
2013-02-07 02:47:00,70.5,69.9,30.78,ESE,112,0.0,0.0,98,0.00,CLR,,0.00,WeatherDisplay:10.37,2013-02-07 07:47:00,
2013-02-07 02:52:00,70.5,69.9,30.78,ESE,112,0.0,0.0,98,0.00,CLR,,0.00,WeatherDisplay:10.37,2013-02-07 07:52:00,
2013-02-07 02:57:00,70.5,69.9,30.58,ESE,112,0.0,0.0,98,0.00,CLR,,0.00,WeatherDisplay:10.37,2013-02-07 07:57:00,
2013-02-07 03:02:00,70.5,69.9,30.58,ESE,112,0.0,0.0,98,0.00,CLR,,0.00,WeatherDisplay:10.37,2013-02-07 08:02:00,
2013-02-07 03:07:00,70.5,69.9,30.50,ESE,112,0.0,0.0,98,0.00,CLR,,0.00,WeatherDisplay:10.37,2013-02-07 08:07:00,
2013-02-07 03:12:00,70.3,69.7,30.50,ESE,112,0.0,0.0,98,0.00,CLR,,0.00,WeatherDisplay:10.37,2013-02-07 08:12:00,
2013-02-07 03:17:00,70.3,69.7,30.50,ESE,112,0.0,0.0,98,0.00,CLR,,0.00,WeatherDisplay:10.37,2013-02-07 08:17:00,
2013-02-07 03:22:00,70.3,69.7,30.47,ESE,112,1.1,1.1,98,0.00,CLR,,0.00,WeatherDisplay:10.37,2013-02-07 08:22:00,
2013-02-07 03:27:00,70.2,69.6,30.47,ESE,112,0.0,0.0,98,0.00,CLR,,0.00,WeatherDisplay:10.37,2013-02-07 08:27:00,
2013-02-07 03:32:00,70.2,69.6,30.40,ESE,112,0.0,0.0,98,0.00,CLR,,0.00,WeatherDisplay:10.37,2013-02-07 08:32:00,
2013-02-07 03:37:00,70.0,69.4,30.40,ESE,112,0.0,0.0,98,0.00,CLR,,0.00,WeatherDisplay:10.37,2013-02-07 08:37:00,
2013-02-07 03:42:00,69.8,69.2,30.40,ESE,112,0.0,0.0,98,0.00,CLR,,0.00,WeatherDisplay:10.37,2013-02-07 08:42:00,
2013-02-07 03:47:00,69.6,69.0,30.36,ESE,112,0.0,0.0,98,0.00,CLR,,0.00,WeatherDisplay:10.37,2013-02-07 08:47:00,
2013-02-07 03:52:00,69.4,68.8,30.36,ESE,112,0.0,0.0,98,0.00,CLR,,0.00,WeatherDisplay:10.37,2013-02-07 08:52:00,
2013-02-07 03:57:00,69.3,68.7,30.36,ESE,112,0.0,0.0,98,0.00,CLR,,0.00,WeatherDisplay:10.37,2013-02-07 08:57:00,
2013-02-07 04:02:00,69.1,68.5,30.36,ESE,112,0.0,0.0,98,0.00,CLR,,0.00,WeatherDisplay:10.37,2013-02-07 09:02:00,
2013-02-07 04:07:00,69.1,68.5,30.34,ESE,112,0.0,0.0,98,0.00,CLR,,0.00,WeatherDisplay:10.37,2013-02-07 09:07:00,
2013-02-07 04:12:00,68.9,68.3,30.34,ESE,112,0.0,0.0,98,0.00,CLR,,0.00,WeatherDisplay:10.37,2013-02-07 09:12:00,
2013-02-07 04:17:00,68.7,68.1,30.34,ESE,112,0.0,0.0,98,0.00,CLR,,0.00,WeatherDisplay:10.37,2013-02-07 09:17:00,
2013-02-07 04:22:00,68.9,68.3,30.30,ESE,112,0.0,0.0,98,0.00,CLR,,0.00,WeatherDisplay:10.37,2013-02-07 09:22:00,
2013-02-07 04:27:00,68.9,68.3,30.30,ESE,112,0.0,0.0,98,0.00,CLR,,0.00,WeatherDisplay:10.37,2013-02-07 09:27:00,
2013-02-07 04:32:00,68.7,68.1,30.29,ESE,112,0.0,0.0,98,0.00,CLR,,0.00,WeatherDisplay:10.37,2013-02-07 09:32:00,
2013-02-07 04:37:00,68.5,67.9,30.29,ESE,112,0.0,0.0,98,0.00,CLR,,0.00,WeatherDisplay:10.37,2013-02-07 09:37:00,
2013-02-07 04:42:00,68.4,67.8,30.29,ESE,112,0.0,0.0,98,0.00,CLR,,0.00,WeatherDisplay:10.37,2013-02-07 09:42:00,
2013-02-07 04:47:00,68.2,67.6,30.31,ESE,112,0.0,0.0,98,0.00,CLR,,0.00,WeatherDisplay:10.37,2013-02-07 09:47:00,
2013-02-07 04:52:00,68.0,67.4,30.31,ESE,112,0.0,0.0,98,0.00,CLR,,0.00,WeatherDisplay:10.37,2013-02-07 09:52:00,
2013-02-07 04:57:00,68.0,67.4,30.32,ESE,112,0.0,0.0,98,0.00,CLR,,0.00,WeatherDisplay:10.37,2013-02-07 09:57:00,
2013-02-07 05:02:00,67.8,67.2,30.32,ESE,112,0.0,0.0,98,0.00,CLR,,0.00,WeatherDisplay:10.37,2013-02-07 10:02:00,
2013-02-07 05:07:00,67.6,67.0,30.26,ESE,112,0.0,0.0,98,0.00,CLR,,0.00,WeatherDisplay:10.37,2013-02-07 10:07:00,
2013-02-07 05:12:00,67.5,66.9,30.26,ESE,112,0.0,0.0,98,0.00,CLR,,0.00,WeatherDisplay:10.37,2013-02-07 10:12:00,
2013-02-07 05:17:00,67.5,66.9,30.26,ESE,112,0.0,0.0,98,0.00,CLR,,0.00,WeatherDisplay:10.37,2013-02-07 10:17:00,
2013-02-07 05:22:00,67.5,66.9,30.28,ESE,112,0.0,0.0,98,0.00,CLR,,0.00,WeatherDisplay:10.37,2013-02-07 10:22:00,
2013-02-07 05:27:00,67.6,67.0,30.28,ESE,112,0.0,0.0,98,0.00,CLR,,0.00,WeatherDisplay:10.37,2013-02-07 10:27:00,
2013-02-07 05:32:00,67.8,67.2,30.31,ESE,112,0.0,0.0,98,0.00,CLR,,0.00,WeatherDisplay:10.37,2013-02-07 10:32:00,
2013-02-07 05:37:00,67.6,67.0,30.31,ESE,112,0.0,0.0,98,0.00,CLR,,0.00,WeatherDisplay:10.37,2013-02-07 10:37:00,
2013-02-07 05:42:00,67.6,67.0,30.30,ESE,112,0.0,0.0,98,0.00,CLR,,0.00,WeatherDisplay:10.37,2013-02-07 10:42:00,
2013-02-07 05:47:00,67.5,66.9,30.30,ESE,112,0.0,0.0,98,0.00,CLR,,0.00,WeatherDisplay:10.37,2013-02-07 10:47:00,
2013-02-07 05:52:00,67.5,66.9,30.30,ESE,112,0.0,0.0,98,0.00,CLR,,0.00,WeatherDisplay:10.37,2013-02-07 10:52:00,
2013-02-07 05:57:00,67.5,66.9,30.56,ESE,112,0.0,0.0,98,0.00,CLR,,0.00,WeatherDisplay:10.37,2013-02-07 10:57:00,
2013-02-07 06:02:00,67.5,66.9,30.56,ESE,112,0.0,0.0,98,0.00,CLR,,0.00,WeatherDisplay:10.37,2013-02-07 11:02:00,
2013-02-07 06:07:00,67.5,66.9,30.76,ESE,112,0.0,0.0,98,0.00,CLR,,0.00,WeatherDisplay:10.37,2013-02-07 11:07:00,
2013-02-07 06:12:00,67.6,67.0,30.76,ESE,112,0.0,0.0,98,0.00,CLR,,0.00,WeatherDisplay:10.37,2013-02-07 11:12:00,
2013-02-07 06:17:00,67.6,67.0,30.76,ESE,112,0.0,0.0,98,0.00,CLR,,0.00,WeatherDisplay:10.37,2013-02-07 11:17:00,
2013-02-07 06:22:00,67.6,67.0,30.88,ESE,112,0.0,0.0,98,0.00,CLR,,0.00,WeatherDisplay:10.37,2013-02-07 11:22:00,
2013-02-07 06:27:00,67.6,67.0,30.88,ESE,112,0.0,0.0,98,0.00,CLR,,0.00,WeatherDisplay:10.37,2013-02-07 11:27:00,
2013-02-07 06:32:00,67.6,67.0,30.94,ESE,112,0.0,0.0,98,0.00,CLR,,0.00,WeatherDisplay:10.37,2013-02-07 11:32:00,
2013-02-07 06:37:00,67.5,66.9,30.94,ESE,112,0.0,0.0,98,0.00,CLR,,0.00,WeatherDisplay:10.37,2013-02-07 11:37:00,
2013-02-07 06:42:00,67.3,66.7,30.97,ESE,112,0.0,0.0,98,0.00,CLR,,0.00,WeatherDisplay:10.37,2013-02-07 11:42:00,
2013-02-07 06:47:00,67.3,66.7,30.97,ESE,112,0.0,0.0,98,0.00,CLR,,0.00,WeatherDisplay:10.37,2013-02-07 11:47:00,
2013-02-07 06:52:00,67.1,66.5,30.97,ESE,112,0.0,0.0,98,0.00,CLR,,0.00,WeatherDisplay:10.37,2013-02-07 11:52:00,
2013-02-07 06:57:00,67.1,66.5,31.00,ESE,112,0.0,0.0,98,0.00,CLR,,0.00,WeatherDisplay:10.37,2013-02-07 11:57:00,
2013-02-07 07:02:00,67.1,66.5,31.00,ESE,112,0.0,0.0,98,0.00,CLR,,0.00,WeatherDisplay:10.37,2013-02-07 12:02:00,
2013-02-07 07:07:00,66.9,66.3,30.77,ESE,112,0.0,0.0,98,0.00,CLR,,0.00,WeatherDisplay:10.37,2013-02-07 12:07:00,
2013-02-07 07:12:00,66.9,66.3,30.77,ESE,112,0.0,0.0,98,0.00,CLR,,0.00,WeatherDisplay:10.37,2013-02-07 12:12:00,
2013-02-07 07:17:00,66.9,66.3,30.77,ESE,112,0.0,0.0,98,0.00,CLR,,0.00,WeatherDisplay:10.37,2013-02-07 12:17:00,
2013-02-07 07:22:00,66.9,66.3,30.51,ESE,112,0.0,0.0,98,0.00,CLR,,0.00,WeatherDisplay:10.37,2013-02-07 12:22:00,
2013-02-07 07:27:00,67.1,66.5,30.51,ESE,112,0.0,0.0,98,0.00,CLR,,0.00,WeatherDisplay:10.37,2013-02-07 12:27:00,
2013-02-07 07:32:00,67.1,66.5,30.64,ESE,112,0.0,0.0,98,0.00,CLR,,0.00,WeatherDisplay:10.37,2013-02-07 12:32:00,
2013-02-07 07:37:00,67.1,66.5,30.64,ESE,112,0.0,0.0,98,0.00,CLR,,0.00,WeatherDisplay:10.37,2013-02-07 12:37:00,
2013-02-07 07:42:00,67.3,66.7,30.55,ESE,112,0.0,0.0,98,0.00,CLR,,0.00,WeatherDisplay:10.37,2013-02-07 12:42:00,
2013-02-07 07:48:00,67.6,67.0,30.55,ESE,112,0.0,0.0,98,0.00,CLR,,0.00,WeatherDisplay:10.37,2013-02-07 12:48:00,
2013-02-07 07:53:00,68.0,67.4,30.55,ESE,112,0.0,0.0,98,0.00,CLR,,0.00,WeatherDisplay:10.37,2013-02-07 12:53:00,
2013-02-07 07:58:00,68.0,67.4,30.40,ESE,112,0.0,0.0,98,0.00,CLR,,0.00,WeatherDisplay:10.37,2013-02-07 12:58:00,
2013-02-07 08:03:00,68.0,67.4,30.40,ESE,112,0.0,0.0,98,0.00,CLR,,0.00,WeatherDisplay:10.37,2013-02-07 13:03:00,
2013-02-07 08:08:00,68.4,67.8,30.31,ESE,112,0.0,0.0,98,0.00,CLR,,0.00,WeatherDisplay:10.37,2013-02-07 13:08:00,
2013-02-07 08:13:00,72.0,71.4,30.31,ESE,112,0.0,0.0,98,0.00,CLR,,0.00,WeatherDisplay:10.37,2013-02-07 13:13:00,
2013-02-07 08:18:00,73.9,73.3,30.31,ESE,112,0.0,0.0,98,0.00,CLR,,0.00,WeatherDisplay:10.37,2013-02-07 13:18:00,
2013-02-07 08:23:00,73.8,73.2,30.29,ESE,112,0.0,0.0,98,0.00,CLR,,0.00,WeatherDisplay:10.37,2013-02-07 13:23:00,
2013-02-07 08:28:00,75.6,75.0,30.29,ESE,112,0.0,0.0,98,0.00,CLR,,0.00,WeatherDisplay:10.37,2013-02-07 13:28:00,
2013-02-07 08:33:00,75.9,75.3,30.26,ESE,112,0.0,0.0,98,0.00,CLR,,0.00,WeatherDisplay:10.37,2013-02-07 13:33:00,
2013-02-07 08:38:00,77.2,76.6,30.26,ESE,112,0.0,0.0,98,0.00,CLR,,0.00,WeatherDisplay:10.37,2013-02-07 13:38:00,
2013-02-07 08:43:00,77.0,76.4,30.20,East,90,1.1,1.1,98,0.00,CLR,,0.00,WeatherDisplay:10.37,2013-02-07 13:43:00,
2013-02-07 08:48:00,78.1,77.5,30.20,ESE,112,0.0,0.0,98,0.00,CLR,,0.00,WeatherDisplay:10.37,2013-02-07 13:48:00,
2013-02-07 08:53:00,76.3,75.7,30.20,East,90,2.7,2.7,98,0.00,CLR,,0.00,WeatherDisplay:10.37,2013-02-07 13:53:00,
2013-02-07 08:58:00,77.7,77.1,30.16,East,90,0.0,0.0,98,0.00,CLR,,0.00,WeatherDisplay:10.37,2013-02-07 13:58:00,
2013-02-07 09:03:00,78.1,77.5,30.16,SE,135,2.3,2.3,98,0.00,CLR,,0.00,WeatherDisplay:10.37,2013-02-07 14:03:00,
2013-02-07 09:08:00,77.7,77.1,30.13,SE,135,2.3,2.3,98,0.00,CLR,,0.00,WeatherDisplay:10.37,2013-02-07 14:08:00,
2013-02-07 09:13:00,78.4,77.8,30.13,East,90,4.6,4.6,98,0.00,CLR,,0.00,WeatherDisplay:10.37,2013-02-07 14:13:00,
2013-02-07 09:18:00,78.6,78.0,30.13,SE,135,2.7,2.7,98,0.00,CLR,,0.00,WeatherDisplay:10.37,2013-02-07 14:18:00,
2013-02-07 09:23:00,78.3,77.7,30.09,SE,135,2.3,2.3,98,0.00,CLR,,0.00,WeatherDisplay:10.37,2013-02-07 14:23:00,
2013-02-07 09:28:00,79.3,78.7,30.09,ESE,112,0.0,0.0,98,0.00,CLR,,0.00,WeatherDisplay:10.37,2013-02-07 14:28:00,
2013-02-07 09:33:00,78.8,78.2,30.05,East,90,2.7,2.7,98,0.00,CLR,,0.00,WeatherDisplay:10.37,2013-02-07 14:33:00,
2013-02-07 09:38:00,78.1,77.5,30.05,NW,315,5.3,5.3,98,0.00,CLR,,0.00,WeatherDisplay:10.37,2013-02-07 14:38:00,
2013-02-07 09:43:00,78.3,77.7,30.02,SSE,158,5.8,5.8,98,0.00,CLR,,0.00,WeatherDisplay:10.37,2013-02-07 14:43:00,
2013-02-07 09:48:00,79.9,79.3,30.02,SSE,158,1.1,1.1,98,0.00,CLR,,0.00,WeatherDisplay:10.37,2013-02-07 14:48:00,
2013-02-07 09:53:00,79.9,79.3,30.02,ESE,112,4.6,4.6,98,0.00,CLR,,0.00,WeatherDisplay:10.37,2013-02-07 14:53:00,
2013-02-07 09:58:00,79.3,78.7,29.98,ESE,112,3.5,3.5,98,0.00,CLR,,0.00,WeatherDisplay:10.37,2013-02-07 14:58:00,
2013-02-07 10:03:00,79.9,79.3,29.98,East,90,5.8,5.8,98,0.00,CLR,,0.00,WeatherDisplay:10.37,2013-02-07 15:03:00,
2013-02-07 10:08:00,79.9,79.3,29.94,NNE,22,4.6,4.6,98,0.00,CLR,,0.00,WeatherDisplay:10.37,2013-02-07 15:08:00,
2013-02-07 10:13:00,80.6,80.0,29.94,ESE,112,3.5,3.5,98,0.00,CLR,,0.00,WeatherDisplay:10.37,2013-02-07 15:13:00,
2013-02-07 10:18:00,80.2,79.6,29.89,ESE,112,4.6,4.6,98,0.00,CLR,,0.00,WeatherDisplay:10.37,2013-02-07 15:18:00,
2013-02-07 10:23:00,80.2,79.6,29.89,ESE,112,3.5,3.5,98,0.00,CLR,,0.00,WeatherDisplay:10.37,2013-02-07 15:23:00,
2013-02-07 10:28:00,80.2,79.6,29.89,SE,135,4.6,4.6,98,0.00,CLR,,0.00,WeatherDisplay:10.37,2013-02-07 15:28:00,
2013-02-07 10:33:00,80.6,80.0,29.91,SE,135,2.3,2.3,98,0.00,CLR,,0.00,WeatherDisplay:10.37,2013-02-07 15:33:00,
2013-02-07 10:38:00,81.3,80.7,29.91,South,180,3.5,3.5,98,0.00,CLR,,0.00,WeatherDisplay:10.37,2013-02-07 15:38:00,
2013-02-07 10:43:00,81.1,80.5,30.23,ESE,112,2.3,2.5,98,0.00,CLR,,0.00,WeatherDisplay:10.37,2013-02-07 15:43:00,
2013-02-07 10:48:00,80.6,80.0,30.23,SE,135,3.7,3.7,98,0.00,CLR,,0.00,WeatherDisplay:10.37,2013-02-07 15:48:00,
2013-02-07 10:53:00,81.1,80.5,30.23,ESE,112,6.9,6.9,98,0.00,CLR,,0.00,WeatherDisplay:10.37,2013-02-07 15:53:00,
2013-02-07 10:58:00,81.1,80.5,30.40,ESE,112,3.5,3.5,98,0.00,CLR,,0.00,WeatherDisplay:10.37,2013-02-07 15:58:00,
2013-02-07 11:03:00,79.0,78.4,30.40,ESE,112,2.3,2.3,98,0.00,CLR,,0.00,WeatherDisplay:10.37,2013-02-07 16:03:00,
2013-02-07 11:08:00,80.6,80.0,30.50,SE,135,4.6,4.6,98,0.00,CLR,,0.00,WeatherDisplay:10.37,2013-02-07 16:08:00,
2013-02-07 11:13:00,80.4,79.8,30.50,ESE,112,4.2,4.2,98,0.00,CLR,,0.00,WeatherDisplay:10.37,2013-02-07 16:13:00,
2013-02-07 11:18:00,78.8,78.2,30.56,ESE,112,4.6,4.6,98,0.00,CLR,,0.00,WeatherDisplay:10.37,2013-02-07 16:18:00,
2013-02-07 11:23:00,78.6,78.0,30.56,ESE,112,6.9,6.9,98,0.00,CLR,,0.00,WeatherDisplay:10.37,2013-02-07 16:23:00,
2013-02-07 11:28:00,80.6,80.0,30.56,SE,135,3.5,3.5,98,0.00,CLR,,0.00,WeatherDisplay:10.37,2013-02-07 16:28:00,
2013-02-07 11:33:00,79.7,79.1,30.63,SE,135,3.5,3.5,98,0.00,CLR,,0.00,WeatherDisplay:10.37,2013-02-07 16:33:00,
2013-02-07 11:38:00,80.6,80.0,30.63,ESE,112,3.5,3.5,98,0.00,CLR,,0.00,WeatherDisplay:10.37,2013-02-07 16:38:00,
2013-02-07 11:43:00,79.5,78.9,30.65,ESE,112,3.5,3.5,98,0.00,CLR,,0.00,WeatherDisplay:10.37,2013-02-07 16:43:00,
2013-02-07 11:48:00,81.9,81.3,30.65,ESE,112,3.7,3.7,98,0.00,CLR,,0.00,WeatherDisplay:10.37,2013-02-07 16:48:00,
2013-02-07 11:53:00,82.0,81.4,30.65,East,90,4.6,4.6,98,0.00,CLR,,0.00,WeatherDisplay:10.37,2013-02-07 16:53:00,
2013-02-07 11:58:00,80.1,79.5,30.54,ESE,112,2.3,2.3,98,0.00,CLR,,0.00,WeatherDisplay:10.37,2013-02-07 16:58:00,
2013-02-07 12:03:00,80.4,79.8,30.54,SSE,158,2.3,2.3,98,0.00,CLR,,0.00,WeatherDisplay:10.37,2013-02-07 17:03:00,
2013-02-07 12:08:00,80.8,80.2,30.23,ESE,112,3.5,3.5,98,0.00,CLR,,0.00,WeatherDisplay:10.37,2013-02-07 17:08:00,
2013-02-07 12:13:00,80.1,79.5,30.23,SSE,158,4.6,4.6,98,0.00,CLR,,0.00,WeatherDisplay:10.37,2013-02-07 17:13:00,
2013-02-07 12:18:00,79.2,78.6,30.03,SE,135,4.6,4.6,98,0.00,CLR,,0.00,WeatherDisplay:10.37,2013-02-07 17:18:00,
2013-02-07 12:23:00,81.5,80.9,30.03,ESE,112,6.9,6.9,98,0.00,CLR,,0.00,WeatherDisplay:10.37,2013-02-07 17:23:00,
2013-02-07 12:28:00,81.7,81.1,30.03,ESE,112,0.0,0.0,98,0.00,CLR,,0.00,WeatherDisplay:10.37,2013-02-07 17:28:00,
2013-02-07 12:33:00,79.3,78.7,29.89,SSE,158,2.3,2.3,98,0.00,CLR,,0.00,WeatherDisplay:10.37,2013-02-07 17:33:00,
2013-02-07 12:38:00,80.2,79.6,29.89,ESE,112,4.6,4.6,98,0.00,CLR,,0.00,WeatherDisplay:10.37,2013-02-07 17:38:00,
2013-02-07 12:43:00,80.8,80.2,30.15,ENE,68,3.5,3.5,98,0.00,CLR,,0.00,WeatherDisplay:10.37,2013-02-07 17:43:00,
2013-02-07 12:48:00,80.1,79.5,30.15,ESE,112,3.7,3.7,98,0.00,CLR,,0.00,WeatherDisplay:10.37,2013-02-07 17:48:00,
2013-02-07 12:53:00,82.0,81.4,30.33,SSE,158,3.7,3.7,98,0.00,CLR,,0.00,WeatherDisplay:10.37,2013-02-07 17:53:00,
2013-02-07 12:58:00,80.8,80.2,30.33,ESE,112,2.3,2.3,98,0.00,CLR,,0.00,WeatherDisplay:10.37,2013-02-07 17:58:00,
2013-02-07 13:03:00,81.1,80.5,30.33,ESE,112,3.5,3.5,98,0.00,CLR,,0.00,WeatherDisplay:10.37,2013-02-07 18:03:00,
2013-02-07 13:08:00,80.4,79.8,30.43,ESE,112,2.3,2.3,98,0.00,CLR,,0.00,WeatherDisplay:10.37,2013-02-07 18:08:00,
2013-02-07 13:13:00,81.0,80.4,30.43,SSE,158,3.7,3.7,98,0.00,CLR,,0.00,WeatherDisplay:10.37,2013-02-07 18:13:00,
2013-02-07 13:18:00,81.9,81.3,30.43,ESE,112,1.1,0.0,98,0.00,CLR,,0.00,WeatherDisplay:10.37,2013-02-07 18:18:00,
2013-02-07 13:23:00,82.4,81.8,30.47,SE,135,3.5,3.5,98,0.00,CLR,,0.00,WeatherDisplay:10.37,2013-02-07 18:23:00,
2013-02-07 13:28:00,82.4,81.8,30.47,ESE,112,3.5,3.5,98,0.00,CLR,,0.00,WeatherDisplay:10.37,2013-02-07 18:28:00,
2013-02-07 13:33:00,80.1,79.5,30.45,SSE,158,3.5,0.0,98,0.00,CLR,,0.00,WeatherDisplay:10.37,2013-02-07 18:33:00,
2013-02-07 13:38:00,81.1,80.5,30.45,SSE,158,4.6,4.6,98,0.00,CLR,,0.00,WeatherDisplay:10.37,2013-02-07 18:38:00,
2013-02-07 13:43:00,81.7,81.1,30.46,ESE,112,4.6,4.6,98,0.00,CLR,,0.00,WeatherDisplay:10.37,2013-02-07 18:43:00,
2013-02-07 13:48:00,82.0,81.4,30.46,ESE,112,4.6,4.6,98,0.00,CLR,,0.00,WeatherDisplay:10.37,2013-02-07 18:48:00,
2013-02-07 13:53:00,81.5,80.9,30.47,ESE,112,3.5,3.5,98,0.00,CLR,,0.00,WeatherDisplay:10.37,2013-02-07 18:53:00,
2013-02-07 13:58:00,81.7,81.1,30.47,ESE,112,2.2,2.2,98,0.00,CLR,,0.00,WeatherDisplay:10.37,2013-02-07 18:58:00,
2013-02-07 14:03:00,81.1,80.5,30.47,ESE,112,2.7,2.7,98,0.00,CLR,,0.00,WeatherDisplay:10.37,2013-02-07 19:03:00,
2013-02-07 14:08:00,81.1,80.5,30.50,SSE,158,2.3,2.3,98,0.00,CLR,,0.00,WeatherDisplay:10.37,2013-02-07 19:08:00,
2013-02-07 14:13:00,81.3,80.7,30.50,SSE,158,2.3,2.3,98,0.00,CLR,,0.00,WeatherDisplay:10.37,2013-02-07 19:13:00,
2013-02-07 14:18:00,81.1,80.5,30.48,SSE,158,3.5,3.5,98,0.00,CLR,,0.00,WeatherDisplay:10.37,2013-02-07 19:18:00,
2013-02-07 14:23:00,81.1,80.5,30.48,ESE,112,5.8,5.8,98,0.00,CLR,,0.00,WeatherDisplay:10.37,2013-02-07 19:23:00,
2013-02-07 14:28:00,81.1,80.5,30.48,ESE,112,3.5,3.5,98,0.00,CLR,,0.00,WeatherDisplay:10.37,2013-02-07 19:28:00,
2013-02-07 14:33:00,81.3,80.7,30.45,SSE,158,2.3,2.3,98,0.00,CLR,,0.00,WeatherDisplay:10.37,2013-02-07 19:33:00,
2013-02-07 14:38:00,81.3,80.7,30.45,ESE,112,4.6,4.6,98,0.00,CLR,,0.00,WeatherDisplay:10.37,2013-02-07 19:38:00,
2013-02-07 14:43:00,81.0,80.4,30.47,SE,135,4.6,4.6,98,0.00,CLR,,0.00,WeatherDisplay:10.37,2013-02-07 19:43:00,
2013-02-07 14:48:00,81.0,78.1,30.47,ESE,112,4.6,4.6,91,0.00,CLR,,0.00,WeatherDisplay:10.37,2013-02-07 19:48:00,
2013-02-07 14:53:00,81.0,80.4,30.49,SE,135,3.2,3.2,98,0.00,CLR,,0.00,WeatherDisplay:10.37,2013-02-07 19:53:00,
2013-02-07 14:58:00,80.8,80.2,30.49,SE,135,3.5,3.5,98,0.00,CLR,,0.00,WeatherDisplay:10.37,2013-02-07 19:58:00,
2013-02-07 15:03:00,80.6,78.7,30.49,ESE,112,4.6,4.6,94,0.00,CLR,,0.00,WeatherDisplay:10.37,2013-02-07 20:03:00,
2013-02-07 15:09:00,80.4,79.8,30.52,East,90,4.6,4.6,98,0.00,CLR,,0.00,WeatherDisplay:10.37,2013-02-07 20:09:00,
2013-02-07 15:14:00,80.2,79.6,30.52,South,180,4.6,4.6,98,0.00,CLR,,0.00,WeatherDisplay:10.37,2013-02-07 20:14:00,
2013-02-07 15:19:00,80.2,79.6,30.56,SE,135,2.3,2.3,98,0.00,CLR,,0.00,WeatherDisplay:10.37,2013-02-07 20:19:00,
2013-02-07 15:24:00,80.2,79.6,30.56,SE,135,2.7,2.7,98,0.00,CLR,,0.00,WeatherDisplay:10.37,2013-02-07 20:24:00,
2013-02-07 15:29:00,80.4,79.8,30.56,East,90,5.8,5.8,98,0.00,CLR,,0.00,WeatherDisplay:10.37,2013-02-07 20:29:00,
2013-02-07 15:34:00,79.9,79.3,30.58,ESE,112,2.3,2.3,98,0.00,CLR,,0.00,WeatherDisplay:10.37,2013-02-07 20:34:00,
2013-02-07 15:39:00,79.9,79.3,30.58,SE,135,4.6,4.6,98,0.00,CLR,,0.00,WeatherDisplay:10.37,2013-02-07 20:39:00,
2013-02-07 15:44:00,79.9,79.3,30.61,ESE,112,3.7,3.7,98,0.00,CLR,,0.00,WeatherDisplay:10.37,2013-02-07 20:44:00,
2013-02-07 15:49:00,79.5,78.9,30.61,SSE,158,2.3,2.3,98,0.00,CLR,,0.00,WeatherDisplay:10.37,2013-02-07 20:49:00,
2013-02-07 15:54:00,79.5,78.9,30.53,East,90,3.5,3.5,98,0.00,CLR,,0.00,WeatherDisplay:10.37,2013-02-07 20:54:00,
2013-02-07 15:59:00,79.2,78.6,30.53,ESE,112,2.3,2.3,98,0.00,CLR,,0.00,WeatherDisplay:10.37,2013-02-07 20:59:00,
2013-02-07 16:04:00,79.0,78.4,30.53,ESE,112,4.7,4.7,98,0.00,CLR,,0.00,WeatherDisplay:10.37,2013-02-07 21:04:00,
2013-02-07 16:09:00,79.0,78.4,30.27,SSE,158,4.6,4.6,98,0.00,CLR,,0.00,WeatherDisplay:10.37,2013-02-07 21:09:00,
2013-02-07 16:14:00,78.8,78.2,30.27,East,90,4.6,4.6,98,0.00,CLR,,0.00,WeatherDisplay:10.37,2013-02-07 21:14:00,
2013-02-07 16:19:00,78.6,78.0,30.09,ESE,112,3.5,3.5,98,0.00,CLR,,0.00,WeatherDisplay:10.37,2013-02-07 21:19:00,
2013-02-07 16:24:00,78.6,78.0,30.09,SSE,158,3.5,3.5,98,0.00,CLR,,0.00,WeatherDisplay:10.37,2013-02-07 21:24:00,
2013-02-07 16:29:00,78.6,78.0,30.09,SE,135,5.8,5.8,98,0.00,CLR,,0.00,WeatherDisplay:10.37,2013-02-07 21:29:00,
2013-02-07 16:34:00,78.3,77.7,29.99,SE,135,3.5,3.5,98,0.00,CLR,,0.00,WeatherDisplay:10.37,2013-02-07 21:34:00,
2013-02-07 16:39:00,78.1,77.5,29.99,ESE,112,3.5,3.5,98,0.00,CLR,,0.00,WeatherDisplay:10.37,2013-02-07 21:39:00,
2013-02-07 16:44:00,78.1,77.5,29.92,SE,135,0.0,0.0,98,0.00,CLR,,0.00,WeatherDisplay:10.37,2013-02-07 21:44:00,
2013-02-07 16:49:00,78.1,77.5,29.92,ESE,112,0.0,0.0,98,0.00,CLR,,0.00,WeatherDisplay:10.37,2013-02-07 21:49:00,
2013-02-07 16:54:00,78.1,77.5,29.88,ESE,112,0.0,0.0,98,0.00,CLR,,0.00,WeatherDisplay:10.37,2013-02-07 21:54:00,
2013-02-07 16:59:00,77.7,77.1,29.88,ESE,112,3.5,3.5,98,0.00,CLR,,0.00,WeatherDisplay:10.37,2013-02-07 21:59:00,
2013-02-07 17:04:00,77.5,76.9,29.88,South,180,4.6,4.6,98,0.00,CLR,,0.00,WeatherDisplay:10.37,2013-02-07 22:04:00,
2013-02-07 17:09:00,77.5,76.9,29.85,ESE,112,4.6,4.6,98,0.00,CLR,,0.00,WeatherDisplay:10.37,2013-02-07 22:09:00,
2013-02-07 17:14:00,77.5,76.9,29.85,South,180,2.3,0.0,98,0.00,CLR,,0.00,WeatherDisplay:10.37,2013-02-07 22:14:00,
2013-02-07 17:19:00,77.0,76.4,30.17,South,180,3.5,3.5,98,0.00,CLR,,0.00,WeatherDisplay:10.37,2013-02-07 22:19:00,
2013-02-07 17:24:00,76.8,76.2,30.17,ESE,112,2.7,2.9,98,0.00,CLR,,0.00,WeatherDisplay:10.37,2013-02-07 22:24:00,
2013-02-07 17:29:00,76.6,76.0,30.17,SE,135,2.3,2.3,98,0.00,CLR,,0.00,WeatherDisplay:10.37,2013-02-07 22:29:00,
2013-02-07 17:34:00,76.3,75.7,30.41,SE,135,2.7,2.7,98,0.00,CLR,,0.00,WeatherDisplay:10.37,2013-02-07 22:34:00,
2013-02-07 17:39:00,76.1,75.5,30.41,East,90,2.3,2.3,98,0.00,CLR,,0.00,WeatherDisplay:10.37,2013-02-07 22:39:00,
2013-02-07 17:45:00,75.9,75.3,30.53,SE,135,2.3,2.3,98,0.00,CLR,,0.00,WeatherDisplay:10.37,2013-02-07 22:45:00,
2013-02-07 17:50:00,75.7,75.1,30.53,SSE,158,0.0,0.0,98,0.00,CLR,,0.00,WeatherDisplay:10.37,2013-02-07 22:50:00,
2013-02-07 17:55:00,75.4,74.8,30.61,SSE,158,2.7,2.7,98,0.00,CLR,,0.00,WeatherDisplay:10.37,2013-02-07 22:55:00,
2013-02-07 18:00:00,75.2,74.6,30.61,ESE,112,1.1,1.1,98,0.00,CLR,,0.00,WeatherDisplay:10.37,2013-02-07 23:00:00,
2013-02-07 18:05:00,75.0,74.4,30.61,ESE,112,2.3,2.3,98,0.00,CLR,,0.00,WeatherDisplay:10.37,2013-02-07 23:05:00,
2013-02-07 18:10:00,74.8,74.2,30.68,SE,135,2.3,2.3,98,0.00,CLR,,0.00,WeatherDisplay:10.37,2013-02-07 23:10:00,
2013-02-07 18:15:00,74.7,74.1,30.68,SE,135,0.0,0.0,98,0.00,CLR,,0.00,WeatherDisplay:10.37,2013-02-07 23:15:00,
2013-02-07 18:20:00,74.5,73.9,30.74,ESE,112,0.0,0.0,98,0.00,CLR,,0.00,WeatherDisplay:10.37,2013-02-07 23:20:00,
2013-02-07 18:25:00,74.3,73.7,30.74,ESE,112,0.0,0.0,98,0.00,CLR,,0.00,WeatherDisplay:10.37,2013-02-07 23:25:00,
2013-02-07 18:30:00,74.1,73.5,30.62,ESE,112,0.0,0.0,98,0.00,CLR,,0.00,WeatherDisplay:10.37,2013-02-07 23:30:00,
2013-02-07 18:35:00,73.9,73.3,30.62,ESE,112,0.0,0.0,98,0.00,CLR,,0.00,WeatherDisplay:10.37,2013-02-07 23:35:00,
2013-02-07 18:40:00,73.9,73.3,30.62,ESE,112,0.0,0.0,98,0.00,CLR,,0.00,WeatherDisplay:10.37,2013-02-07 23:40:00,
2013-02-07 18:45:00,73.9,73.3,30.38,SE,135,0.0,0.0,98,0.00,CLR,,0.00,WeatherDisplay:10.37,2013-02-07 23:45:00,
2013-02-07 18:50:00,73.9,73.3,30.38,ESE,112,0.0,0.0,98,0.00,CLR,,0.00,WeatherDisplay:10.37,2013-02-07 23:50:00,
2013-02-07 18:55:00,73.9,73.3,30.20,ESE,112,0.0,0.0,98,0.00,CLR,,0.00,WeatherDisplay:10.37,2013-02-07 23:55:00,
2013-02-07 19:00:00,73.9,73.3,30.20,ESE,112,0.0,0.0,98,0.00,CLR,,0.00,WeatherDisplay:10.37,2013-02-08 00:00:00,
2013-02-07 19:05:00,73.9,73.3,30.20,ESE,112,0.0,0.0,98,0.00,CLR,,0.00,WeatherDisplay:10.37,2013-02-08 00:05:00,
2013-02-07 19:10:00,73.9,73.3,30.10,ESE,112,0.0,0.0,98,0.00,CLR,,0.00,WeatherDisplay:10.37,2013-02-08 00:10:00,
2013-02-07 19:15:00,73.9,73.3,30.10,ESE,112,0.0,0.0,98,0.00,CLR,,0.00,WeatherDisplay:10.37,2013-02-08 00:15:00,
2013-02-07 19:20:00,73.8,73.2,30.10,ESE,112,0.0,0.0,98,0.00,CLR,,0.00,WeatherDisplay:10.37,2013-02-08 00:20:00,
2013-02-07 19:25:00,73.8,73.2,30.10,ESE,112,0.0,0.0,98,0.00,CLR,,0.00,WeatherDisplay:10.37,2013-02-08 00:25:00,
2013-02-07 19:30:00,73.8,73.2,30.40,ESE,112,0.0,0.0,98,0.00,CLR,,0.00,WeatherDisplay:10.37,2013-02-08 00:30:00,
2013-02-07 19:35:00,73.8,73.2,30.40,ESE,112,0.0,0.0,98,0.00,CLR,,0.00,WeatherDisplay:10.37,2013-02-08 00:35:00,
2013-02-07 19:40:00,73.8,73.2,30.40,ESE,112,0.0,0.0,98,0.00,CLR,,0.00,WeatherDisplay:10.37,2013-02-08 00:40:00,
2013-02-07 19:45:00,73.6,73.0,30.56,ESE,112,0.0,0.0,98,0.00,CLR,,0.00,WeatherDisplay:10.37,2013-02-08 00:45:00,
2013-02-07 19:50:00,73.6,73.0,30.56,ESE,112,0.0,0.0,98,0.00,CLR,,0.00,WeatherDisplay:10.37,2013-02-08 00:50:00,
2013-02-07 19:55:00,73.6,73.0,30.65,ESE,112,0.0,0.0,98,0.00,CLR,,0.00,WeatherDisplay:10.37,2013-02-08 00:55:00,
2013-02-07 20:00:00,73.4,72.8,30.65,ESE,112,0.0,0.0,98,0.00,CLR,,0.00,WeatherDisplay:10.37,2013-02-08 01:00:00,
2013-02-07 20:05:00,73.2,72.6,30.65,ESE,112,0.0,0.0,98,0.00,CLR,,0.00,WeatherDisplay:10.37,2013-02-08 01:05:00,
2013-02-07 20:10:00,73.0,72.4,30.70,ESE,112,0.0,0.0,98,0.00,CLR,,0.00,WeatherDisplay:10.37,2013-02-08 01:10:00,
2013-02-07 20:15:00,72.9,72.3,30.70,ESE,112,0.0,0.0,98,0.00,CLR,,0.00,WeatherDisplay:10.37,2013-02-08 01:15:00,
2013-02-07 20:20:00,72.9,72.3,30.62,ESE,112,0.0,0.0,98,0.00,CLR,,0.00,WeatherDisplay:10.37,2013-02-08 01:20:00,
2013-02-07 20:25:00,72.7,72.1,30.62,ESE,112,0.0,0.0,98,0.00,CLR,,0.00,WeatherDisplay:10.37,2013-02-08 01:25:00,
2013-02-07 20:30:00,72.7,72.1,30.34,ESE,112,0.0,0.0,98,0.00,CLR,,0.00,WeatherDisplay:10.37,2013-02-08 01:30:00,
2013-02-07 20:35:00,72.7,72.1,30.34,ESE,112,0.0,0.0,98,0.00,CLR,,0.00,WeatherDisplay:10.37,2013-02-08 01:35:00,
2013-02-07 20:40:00,72.7,72.1,30.34,ESE,112,0.0,0.0,98,0.00,CLR,,0.00,WeatherDisplay:10.37,2013-02-08 01:40:00,
2013-02-07 20:45:00,72.7,72.1,30.16,ESE,112,0.0,0.0,98,0.00,CLR,,0.00,WeatherDisplay:10.37,2013-02-08 01:45:00,
2013-02-07 20:50:00,72.7,72.1,30.16,ESE,112,0.0,0.0,98,0.00,CLR,,0.00,WeatherDisplay:10.37,2013-02-08 01:50:00,
2013-02-07 20:55:00,72.5,71.9,30.05,ESE,112,0.0,0.0,98,0.00,CLR,,0.00,WeatherDisplay:10.37,2013-02-08 01:55:00,
2013-02-07 21:00:00,72.5,71.9,30.05,ESE,112,0.0,0.0,98,0.00,CLR,,0.00,WeatherDisplay:10.37,2013-02-08 02:00:00,
2013-02-07 21:05:00,72.5,71.9,30.05,ESE,112,0.0,0.0,98,0.00,CLR,,0.00,WeatherDisplay:10.37,2013-02-08 02:05:00,
2013-02-07 21:10:00,72.3,71.7,30.31,ESE,112,0.0,0.0,98,0.00,CLR,,0.00,WeatherDisplay:10.37,2013-02-08 02:10:00,
2013-02-07 21:15:00,72.1,71.5,30.31,ESE,112,0.0,0.0,98,0.00,CLR,,0.00,WeatherDisplay:10.37,2013-02-08 02:15:00,
2013-02-07 21:20:00,72.0,71.4,30.51,ESE,112,0.0,0.0,98,0.00,CLR,,0.00,WeatherDisplay:10.37,2013-02-08 02:20:00,
2013-02-07 21:25:00,72.0,71.4,30.51,ESE,112,0.0,0.0,98,0.00,CLR,,0.00,WeatherDisplay:10.37,2013-02-08 02:25:00,
2013-02-07 21:30:00,71.8,71.2,30.60,ESE,112,0.0,0.0,98,0.00,CLR,,0.00,WeatherDisplay:10.37,2013-02-08 02:30:00,
2013-02-07 21:35:00,71.6,71.0,30.60,ESE,112,0.0,0.0,98,0.00,CLR,,0.00,WeatherDisplay:10.37,2013-02-08 02:35:00,
2013-02-07 21:40:00,71.6,71.0,30.60,ESE,112,0.0,0.0,98,0.00,CLR,,0.00,WeatherDisplay:10.37,2013-02-08 02:40:00,
2013-02-07 21:45:00,71.6,71.0,30.66,ESE,112,0.0,0.0,98,0.00,CLR,,0.00,WeatherDisplay:10.37,2013-02-08 02:45:00,
2013-02-07 21:50:00,71.6,71.0,30.66,ESE,112,0.0,0.0,98,0.00,CLR,,0.00,WeatherDisplay:10.37,2013-02-08 02:50:00,
2013-02-07 21:55:00,71.4,70.8,30.73,ESE,112,0.0,0.0,98,0.00,CLR,,0.00,WeatherDisplay:10.37,2013-02-08 02:55:00,
2013-02-07 22:00:00,71.4,70.8,30.73,ESE,112,0.0,0.0,98,0.00,CLR,,0.00,WeatherDisplay:10.37,2013-02-08 03:00:00,
2013-02-07 22:05:00,71.4,70.8,30.73,ESE,112,0.0,0.0,98,0.00,CLR,,0.00,WeatherDisplay:10.37,2013-02-08 03:05:00,
2013-02-07 22:10:00,71.4,70.8,30.78,ESE,112,0.0,0.0,98,0.00,CLR,,0.00,WeatherDisplay:10.37,2013-02-08 03:10:00,
2013-02-07 22:15:00,71.1,70.5,30.78,ESE,112,0.0,0.0,98,0.00,CLR,,0.00,WeatherDisplay:10.37,2013-02-08 03:15:00,
2013-02-07 22:20:00,70.9,70.3,30.83,ESE,112,0.0,0.0,98,0.00,CLR,,0.00,WeatherDisplay:10.37,2013-02-08 03:20:00,
2013-02-07 22:25:00,70.5,69.9,30.83,ESE,112,0.0,0.0,98,0.00,CLR,,0.00,WeatherDisplay:10.37,2013-02-08 03:25:00,
2013-02-07 22:30:00,70.5,69.9,30.83,ESE,112,0.0,0.0,98,0.00,CLR,,0.00,WeatherDisplay:10.37,2013-02-08 03:30:00,
2013-02-07 22:35:00,70.2,69.6,30.85,ESE,112,0.0,0.0,98,0.00,CLR,,0.00,WeatherDisplay:10.37,2013-02-08 03:35:00,
2013-02-07 22:40:00,70.0,69.4,30.85,ESE,112,0.0,0.0,98,0.00,CLR,,0.00,WeatherDisplay:10.37,2013-02-08 03:40:00,
2013-02-07 22:45:00,69.8,69.2,30.89,ESE,112,0.0,0.0,98,0.00,CLR,,0.00,WeatherDisplay:10.37,2013-02-08 03:45:00,
2013-02-07 22:50:00,69.8,69.2,30.89,ESE,112,0.0,0.0,98,0.00,CLR,,0.00,WeatherDisplay:10.37,2013-02-08 03:50:00,
2013-02-07 22:55:00,69.8,69.2,30.92,ESE,112,0.0,0.0,98,0.00,CLR,,0.00,WeatherDisplay:10.37,2013-02-08 03:55:00,
2013-02-07 23:00:00,69.8,69.2,30.92,ESE,112,0.0,0.0,98,0.00,CLR,,0.00,WeatherDisplay:10.37,2013-02-08 04:00:00,
2013-02-07 23:05:00,69.8,69.2,30.94,ESE,112,0.0,0.0,98,0.00,CLR,,0.00,WeatherDisplay:10.37,2013-02-08 04:05:00,
2013-02-07 23:10:00,69.6,69.0,30.94,ESE,112,0.0,0.0,98,0.00,CLR,,0.00,WeatherDisplay:10.37,2013-02-08 04:10:00,
2013-02-07 23:15:00,69.8,69.2,30.94,ESE,112,0.0,0.0,98,0.00,CLR,,0.00,WeatherDisplay:10.37,2013-02-08 04:15:00,
2013-02-07 23:20:00,69.8,69.2,30.95,ESE,112,0.0,0.0,98,0.00,CLR,,0.00,WeatherDisplay:10.37,2013-02-08 04:20:00,
2013-02-07 23:25:00,69.6,69.0,30.95,SSE,158,3.2,3.2,98,0.00,CLR,,0.00,WeatherDisplay:10.37,2013-02-08 04:25:00,
2013-02-07 23:30:00,69.6,69.0,30.96,South,180,0.0,0.0,98,0.00,CLR,,0.00,WeatherDisplay:10.37,2013-02-08 04:30:00,
2013-02-07 23:35:00,69.8,69.2,30.96,South,180,0.0,0.0,98,0.00,CLR,,0.00,WeatherDisplay:10.37,2013-02-08 04:35:00,
2013-02-07 23:40:00,69.8,69.2,30.96,SSE,158,2.3,2.3,98,0.00,CLR,,0.00,WeatherDisplay:10.37,2013-02-08 04:40:00,
2013-02-07 23:45:00,70.0,69.4,30.98,SE,135,0.0,0.0,98,0.00,CLR,,0.00,WeatherDisplay:10.37,2013-02-08 04:45:00,
2013-02-07 23:50:00,70.0,69.4,30.98,SSW,202,0.0,0.5,98,0.00,CLR,,0.00,WeatherDisplay:10.37,2013-02-08 04:50:00,
2013-02-07 23:55:00,70.3,69.7,31.00,SSE,158,1.1,1.1,98,0.00,CLR,,0.00,WeatherDisplay:10.37,2013-02-08 04:55:00,